Location: Vihti�l�
(61.3833°N, 23.0667°E)
Time: 05:37:21
(UTC+00:00)

Meteor 1-20 Rocket - Pass Details

Date: 29 November 2020
Orbit: 819 x 892 km, 81.2° (Epoch: 22 January)

Event Time Altitude Azimuth Distance (km) Brightness Sun altitude
Rises 05:43:09 0° 193° (SSW) 3,434 7.6 -9.1°
Reaches altitude 10° 05:45:33 10° 193° (SSW) 2,511 6.9 -8.8°
Maximum altitude 05:51:18 86° 105° (ESE) 891 4.4 -8.2°
Drops below altitude 10° 05:57:10 10° 18° (NNE) 2,567 6.6 -7.6°
Sets 05:59:38 0° 18° (NNE) 3,516 7.3 -7.4°
